Location: Paddlesworth
(51.1000°N, 1.1333°E)
Time: 04:37:48
(UTC+00:00)

Landsat 7 - Pass Details

Date: 11 May 2021
Orbit: 701 x 703 km, 98.0° (Epoch: 14 June)

Event Time Altitude Azimuth Distance (km) Brightness Sun altitude
Exits shadow 20:22:52 - 159° (SSE) 2,588 6.2 -7.1°
Reaches altitude 10° 20:23:54 10° 159° (SSE) 2,168 5.8 -7.2°
Maximum altitude 20:28:39 79° 74° (ENE) 724 3.8 -7.8°
Drops below altitude 10° 20:33:26 10° 348° (NNW) 2,184 7.3 -8.3°
Sets 20:35:42 0° 347° (NNW) 3,107 8.2 -8.6°
